Starlink 5830

operational
NORAD ID: 57065 Int'l Des: 2023-088 Owner: SPXS Country: US Constellation: starlink
LEOCIRCULAR

About Starlink 5830

Description loading...

Live Position

Loading 3D Globe...

Upcoming Passes

Altitude History

Altitude vs Time

uPlot chart will show altitude changes over time

Two-Line Element Set

1 57065U 23088T 25351.84600052 .00000643 00000-0 62673-4 0 9996
2 57065 43.0024 192.5711 0000547 255.6610 104.4171 15.02544196137078
Epoch: Dec 17, 2025 • Age: 11 hours

Current Status

Altitude 564.7 km
Velocity 7.58 km/s
Sub-Earth Point -24.05°S, 35.16°W
Launch Date Jun 22, 2023
Age 2.4 years
Type internet

Technical Details

Classification Payload
Mass 305.00 kg
Dry Mass 290.00 kg
Total Mass 305.00 kg
Length 0.20 m
Diameter 2.80 m
Span 9.00 m
Shape Box + pan
Manufacturer SPXS
Bus Type Starlink
Phase Status In Orbit
Owner/State SPXS/US

Large Constellations

Loading constellations...